This is the latest recevied weather packets stored in our database for station/object K7KAZ. If no packets are shown the sender has not sent any weather packets the latest 10 day(s).
| Time | Temp. | Humidity | Pressure | Rain* | Wind** | Luminosity | Snow |
|---|---|---|---|---|---|---|---|
| 1777921140 | 22.22° C | 48% | 1015.5 hPa | 0 mm | - | 338 W/m² | - |
| 1777920837 | 21.67° C | 48% | 1015.2 hPa | 0 mm | - | 345 W/m² | - |
| 1777920533 | 22.78° C | 47% | 1015.6 hPa | 0 mm | - | 387 W/m² | - |
| 1777920229 | 21.67° C | 49% | 1015.7 hPa | 0 mm | - | 396 W/m² | - |
| 1777919925 | 21.67° C | 49% | 1015.6 hPa | 0 mm | - | 322 W/m² | - |
| 1777919623 | 21.67° C | 50% | 1015.7 hPa | 0 mm | - | 361 W/m² | - |
| 1777919320 | 21.67° C | 50% | 1015.9 hPa | 0 mm | - | 338 W/m² | - |
| 1777919018 | 21.11° C | 50% | 1015.9 hPa | 0 mm | - | 309 W/m² | - |
| 1777918714 | 21.67° C | 50% | 1015.9 hPa | 0 mm | - | 328 W/m² | - |
| 1777918412 | 21.67° C | 50% | 1015.8 hPa | 0 mm | - | 294 W/m² | - |
| 1777918110 | 21.11° C | 51% | 1016.3 hPa | 0 mm | - | 286 W/m² | - |
| 1777917808 | 21.67° C | 51% | 1016 hPa | 0 mm | - | 273 W/m² | - |
| 1777917506 | 21.67° C | 51% | 1016.2 hPa | 0 mm | - | 335 W/m² | - |
| 1777917203 | 21.67° C | 51% | 1016.2 hPa | 0 mm | - | 347 W/m² | - |
| 1777916901 | 21.11° C | 51% | 1016.1 hPa | 0 mm | - | 377 W/m² | - |
| 1777916598 | 21.11° C | 52% | 1015.5 hPa | 0 mm | - | 329 W/m² | - |
| 1777916295 | 20.56° C | 53% | 1015.2 hPa | 0 mm | - | 246 W/m² | - |
| 1777915992 | 20.56° C | 53% | 1015.2 hPa | 0 mm | - | 228 W/m² | - |
| 1777915689 | 20.56° C | 53% | 1015.2 hPa | 0 mm | - | 194 W/m² | - |
| 1777915385 | 20.56° C | 52% | 1015.6 hPa | 0 mm | - | 207 W/m² | - |
| 1777915081 | 20.56° C | 52% | 1015.5 hPa | 0 mm | - | 194 W/m² | - |
| 1777914779 | 20.56° C | 52% | 1015.6 hPa | 0 mm | - | 180 W/m² | - |
| 1777914476 | 20.56° C | 53% | 1015.8 hPa | 0 mm | - | 176 W/m² | - |
| 1777914173 | 20.56° C | 51% | 1015.7 hPa | 0 mm | - | 187 W/m² | - |
| 1777913868 | 20.56° C | 51% | 1015.6 hPa | 0 mm | - | 210 W/m² | - |
* Rain latest hour (hover to see other rain measurements)
** Current wind speed in m/s (hover to see current wind gust speed)